Location: Taupo
(38.6830°S, 176.0830°E)
Time: 15:46:41
(UTC+13:00)

Cosmos 1862 Rocket - Pass Details

Date: 24 January 2019
Orbit: 605 x 633 km, 82.5° (Epoch: 19 February)

Event Time Altitude Azimuth Distance (km) Brightness Sun altitude
Exits shadow 23:23:40 43° 132° (SE) 892 4.3 -25.2°
Drops below altitude 10° 23:26:57 10° 163° (SSE) 2,009 6.7 -25.6°
Sets 23:29:14 0° 167° (SSE) 2,919 7.7 -25.8°
